| time (UTC) | temp F | wind direction | speed MPH | gust MPH | rain 1hr in | rain 24hr in | rain mn in | humidity % | barometer mb |
| 20260504035333 | 52 | 313 | 2.0 | 9.0 | 0.00 | 0.00 | 0.00 | 37 | 1013.3 |
| 20260504034351 | 52 | 298 | 1.0 | 6.0 | 0.00 | 0.00 | 0.00 | 36 | 1013.1 |
| 20260504033327 | 53 | 304 | 1.0 | 9.0 | 0.00 | 0.00 | 0.00 | 35 | 1013.1 |
| 20260504032347 | 53 | 96 | 1.0 | 12.0 | 0.00 | 0.00 | 0.00 | 34 | 1012.9 |
| 20260504031330 | 54 | 248 | 2.0 | 14.0 | 0.00 | 0.00 | 0.00 | 33 | 1012.6 |
| 20260504030413 | 54 | 311 | 1.0 | 11.0 | 0.00 | 0.00 | 0.00 | 34 | 1012.4 |
| 20260504025327 | 54 | 305 | 1.0 | 17.0 | 0.00 | 0.00 | 0.00 | 34 | 1012.2 |
| 20260504024331 | 54 | 283 | 1.0 | 17.0 | 0.00 | 0.00 | 0.00 | 37 | 1012.2 |
| 20260504023412 | 55 | 308 | 2.0 | 10.0 | 0.00 | 0.00 | 0.00 | 39 | 1012.1 |
| 20260504022408 | 55 | 280 | 1.0 | 8.0 | 0.00 | 0.00 | 0.00 | 40 | 1012.0 |
| 20260504021344 | 55 | 323 | 0.0 | 10.0 | 0.00 | 0.00 | 0.00 | 40 | 1012.1 |
| 20260504020352 | 55 | 318 | 1.0 | 10.0 | 0.00 | 0.00 | 0.00 | 40 | 1012.1 |
| 20260504015352 | 56 | 338 | 1.0 | 10.0 | 0.00 | 0.00 | 0.00 | 39 | 1012.1 |
| 20260504014349 | 56 | 275 | 0.0 | 13.0 | 0.00 | 0.00 | 0.00 | 38 | 1012.1 |
| 20260504013326 | 56 | 313 | 2.0 | 12.0 | 0.00 | 0.00 | 0.00 | 37 | 1011.9 |
| 20260504012324 | 57 | 47 | 1.0 | 10.0 | 0.00 | 0.00 | 0.00 | 37 | 1011.6 |
| 20260504011348 | 57 | 173 | 3.0 | 12.0 | 0.00 | 0.00 | 0.00 | 37 | 1011.4 |
| 20260504010326 | 57 | 279 | 2.0 | 13.0 | 0.00 | 0.00 | 0.00 | 37 | 1011.3 |
| 20260504005330 | 58 | 276 | 1.0 | 11.0 | 0.00 | 0.00 | 0.00 | 39 | 1011.3 |
| 20260504004333 | 58 | 279 | 2.0 | 14.0 | 0.00 | 0.00 | 0.00 | 38 | 1011.3 |
| 20260504003355 | 58 | 294 | 3.0 | 18.0 | 0.00 | 0.00 | 0.00 | 39 | 1011.2 |
| 20260504002337 | 58 | 133 | 1.0 | 12.0 | 0.00 | 0.00 | 0.00 | 39 | 1011.2 |
| 20260504001332 | 58 | 220 | 0.0 | 11.0 | 0.00 | 0.00 | 0.00 | 39 | 1011.1 |
| 20260504000357 | 58 | 290 | 1.0 | 11.0 | 0.00 | 0.00 | 0.00 | 39 | 1011.0 |
| 20260503235332 | 58 | 287 | 1.0 | 9.0 | 0.00 | 0.00 | 0.00 | 39 | 1010.9 |
| 20260503234329 | 59 | 236 | 1.0 | 9.0 | 0.00 | 0.00 | 0.00 | 39 | 1010.8 |
| 20260503233353 | 59 | 342 | 0.0 | 9.0 | 0.00 | 0.00 | 0.00 | 38 | 1010.7 |
| 20260503232330 | 59 | 294 | 2.0 | 15.0 | 0.00 | 0.00 | 0.00 | 37 | 1010.6 |
| 20260503231331 | 60 | 26 | 1.0 | 8.0 | 0.00 | 0.00 | 0.00 | 36 | 1010.5 |
| 20260503230338 | 61 | 23 | 1.0 | 12.0 | 0.00 | 0.00 | 0.00 | 35 | 1010.5 |
| 20260503225356 | 62 | 84 | 3.0 | 14.0 | 0.00 | 0.00 | 0.00 | 34 | 1010.2 |
| 20260503224340 | 62 | 277 | 2.0 | 14.0 | 0.00 | 0.00 | 0.00 | 34 | 1010.2 |
| 20260503223339 | 62 | 31 | 2.0 | 19.0 | 0.00 | 0.00 | 0.00 | 34 | 1010.2 |
| 20260503222329 | 62 | 273 | 2.0 | 12.0 | 0.00 | 0.00 | 0.00 | 34 | 1010.2 |
| 20260503221331 | 62 | 300 | 2.0 | 16.0 | 0.00 | 0.00 | 0.00 | 34 | 1010.1 |
| 20260503220338 | 62 | 254 | 4.0 | 18.0 | 0.00 | 0.00 | 0.00 | 34 | 1010.2 |
| 20260503215332 | 62 | 294 | 3.0 | 13.0 | 0.00 | 0.00 | 0.00 | 34 | 1010.1 |
| 20260503214356 | 62 | 297 | 2.0 | 19.0 | 0.00 | 0.00 | 0.00 | 35 | 1010.0 |
| 20260503213330 | 61 | 282 | 5.0 | 14.0 | 0.00 | 0.00 | 0.00 | 34 | 1010.0 |
| 20260503212354 | 61 | 232 | 3.0 | 13.0 | 0.00 | 0.00 | 0.00 | 35 | 1010.1 |
| 20260503211327 | 61 | 284 | 3.0 | 14.0 | 0.00 | 0.00 | 0.00 | 35 | 1010.1 |
| 20260503210332 | 61 | 297 | 4.0 | 18.0 | 0.00 | 0.00 | 0.00 | 35 | 1010.1 |
| 20260503205326 | 61 | 283 | 2.0 | 10.0 | 0.00 | 0.00 | 0.00 | 35 | 1010.0 |
| 20260503204349 | 62 | 328 | 1.0 | 13.0 | 0.00 | 0.00 | 0.00 | 34 | 1010.0 |
| 20260503203353 | 62 | 268 | 2.0 | 13.0 | 0.00 | 0.00 | 0.00 | 34 | 1010.0 |
| 20260503202328 | 62 | 317 | 1.0 | 12.0 | 0.00 | 0.00 | 0.00 | 34 | 1009.9 |
| 20260503201412 | 62 | 70 | 1.0 | 12.0 | 0.00 | 0.00 | 0.00 | 34 | 1009.9 |
| 20260503200351 | 64 | 294 | 2.0 | 12.0 | 0.00 | 0.00 | 0.00 | 32 | 1009.8 |
| 20260503195408 | 64 | 275 | 4.0 | 16.0 | 0.00 | 0.00 | 0.00 | 32 | 1009.7 |
| 20260503194335 | 64 | 292 | 3.0 | 17.0 | 0.00 | 0.00 | 0.00 | 32 | 1009.6 |
| 20260503193331 | 65 | 287 | 2.0 | 15.0 | 0.00 | 0.00 | 0.00 | 32 | 1009.6 |
| 20260503192326 | 67 | 344 | 5.0 | 12.0 | 0.00 | 0.00 | 0.00 | 30 | 1009.5 |
| 20260503191351 | 66 | 296 | 3.0 | 10.0 | 0.00 | 0.00 | 0.00 | 30 | 1009.6 |
| 20260503190329 | 67 | 265 | 1.0 | 12.0 | 0.00 | 0.00 | 0.00 | 30 | 1009.6 |
| 20260503185329 | 67 | 279 | 4.0 | 11.0 | 0.00 | 0.00 | 0.00 | 29 | 1009.6 |
| 20260503184411 | 67 | 298 | 3.0 | 16.0 | 0.00 | 0.00 | 0.00 | 30 | 1009.7 |
| 20260503183349 | 67 | 333 | 2.0 | 10.0 | 0.00 | 0.00 | 0.00 | 31 | 1009.5 |
| 20260503182351 | 67 | 317 | 3.0 | 12.0 | 0.00 | 0.00 | 0.00 | 31 | 1009.6 |
| 20260503181348 | 67 | 300 | 2.0 | 10.0 | 0.00 | 0.00 | 0.00 | 31 | 1009.6 |
| 20260503180353 | 67 | 324 | 4.0 | 16.0 | 0.00 | 0.00 | 0.00 | 31 | 1009.6 |
| 20260503175353 | 67 | 225 | 5.0 | 15.0 | 0.00 | 0.00 | 0.00 | 31 | 1009.8 |
| 20260503174331 | 67 | 291 | 3.0 | 15.0 | 0.00 | 0.00 | 0.00 | 31 | 1009.7 |
| 20260503173356 | 67 | 34 | 2.0 | 14.0 | 0.00 | 0.00 | 0.00 | 31 | 1009.6 |
| 20260503172331 | 67 | 298 | 2.0 | 12.0 | 0.00 | 0.00 | 0.00 | 31 | 1009.6 |
| 20260503171330 | 67 | 306 | 2.0 | 10.0 | 0.00 | 0.00 | 0.00 | 32 | 1009.5 |
| 20260503170332 | 66 | 320 | 4.0 | 13.0 | 0.00 | 0.00 | 0.00 | 34 | 1009.5 |
| 20260503150335 | 63 | 243 | 3.0 | 13.0 | 0.00 | 0.00 | 0.00 | 40 | 1009.2 |
| 20260503131334 | 53 | 275 | 0.0 | 2.0 | 0.00 | 0.00 | 0.00 | 49 | 1008.7 |
| 20260503130331 | 53 | 190 | 0.0 | 2.0 | 0.00 | 0.00 | 0.00 | 50 | 1008.7 |
| 20260503110325 | 52 | 206 | 0.0 | 1.0 | 0.00 | 0.00 | 0.00 | 47 | 1008.9 |
| 20260503090325 | 54 | 184 | 0.0 | 1.0 | 0.00 | 0.00 | 0.00 | 44 | 1009.3 |
| 20260503081401 | 55 | 180 | 0.0 | 1.0 | 0.00 | 0.00 | 0.00 | 43 | 1009.7 |
| 20260503080331 | 55 | 171 | 0.0 | 1.0 | 0.00 | 0.00 | 0.00 | 43 | 1009.7 |
| 20260503072350 | 56 | 268 | 0.0 | 1.0 | 0.00 | 0.00 | 0.00 | 41 | 1009.8 |
| 20260503071348 | 57 | 172 | 0.0 | 1.0 | 0.00 | 0.00 | 0.00 | 41 | 1009.8 |
| 20260503070332 | 57 | 276 | 0.0 | 1.0 | 0.00 | 0.00 | 0.00 | 40 | 1009.8 |
| 20260503060326 | 59 | 166 | 0.0 | 1.0 | 0.00 | 0.00 | 0.00 | 39 | 1009.5 |
| 20260503054351 | 58 | 204 | 0.0 | 2.0 | 0.00 | 0.00 | 0.00 | 43 | 1009.3 |
| 20260503053326 | 57 | 198 | 0.0 | 1.0 | 0.00 | 0.00 | 0.00 | 44 | 1009.4 |
| 20260503052350 | 56 | 190 | 0.0 | 1.0 | 0.00 | 0.00 | 0.00 | 45 | 1009.4 |
| 20260503051344 | 55 | 221 | 0.0 | 0.0 | 0.00 | 0.00 | 0.00 | 47 | 1009.4 |
| 20260503050340 | 55 | 239 | 0.0 | 0.0 | 0.00 | 0.00 | 0.00 | 45 | 1009.4 |
| 20260503045330 | 56 | 239 | 0.0 | 0.0 | 0.00 | 0.00 | 0.00 | 45 | 1009.4 |
| 20260503044326 | 57 | 239 | 0.0 | 0.0 | 0.00 | 0.00 | 0.00 | 43 | 1009.3 |
| 20260503043352 | 58 | 239 | 0.0 | 0.0 | 0.00 | 0.00 | 0.00 | 42 | 1009.1 |
| 20260503042348 | 59 | 239 | 0.0 | 0.0 | 0.00 | 0.00 | 0.00 | 40 | 1009.1 |
| 20260503041324 | 60 | 239 | 0.0 | 0.0 | 0.00 | 0.00 | 0.00 | 38 | 1009.0 |
| 20260503040409 | 61 | 239 | 0.0 | 0.0 | 0.00 | 0.00 | 0.00 | 38 | 1009.0 |